ASA298 KSEA-KEWR

Flight info

Callsign ASA298
Flight time N/A
Altitude 35000
Route MONTN2 SEA NORMY J90 HLN LAWTN KP87A HAYNS VIKNG/N0447F370 LARVA BRIBE EVOTE NELLS KEEHO J584 SLT FQM3
Aircraft B739/M-SDE2E3FGHIRWXY/LB1

Departure

Time N/A
Airport Seattle–Tacoma International Airport (KSEA)

Arrival

Time 2026-04-21 09:16
Airport Newark Liberty International Airport (KEWR)
Time Latitude Longitude Altitude Speed Heading
2026-04-21 05:36 46.63818 -112.22665 34911 ft 501 kts 101°
2026-04-21 05:36 46.62684 -112.12642 34911 ft 502 kts 101°
2026-04-21 05:37 46.61541 -112.02616 34924 ft 502 kts 101°
2026-04-21 05:37 46.60378 -111.92590 34923 ft 503 kts 102°
2026-04-21 05:38 46.59088 -111.82570 34918 ft 504 kts 103°
2026-04-21 05:38 46.57745 -111.72557 34915 ft 505 kts 103°
2026-04-21 05:39 46.56405 -111.62535 34881 ft 505 kts 102°
2026-04-21 05:39 46.55076 -111.52570 34875 ft 506 kts 102°
2026-04-21 05:40 46.53735 -111.42545 34873 ft 506 kts 102°
2026-04-21 05:40 46.52385 -111.32527 34870 ft 506 kts 102°
2026-04-21 05:41 46.51023 -111.22498 34874 ft 505 kts 102°
2026-04-21 05:41 46.49655 -111.12488 34870 ft 504 kts 102°
2026-04-21 05:42 46.48285 -111.02537 34879 ft 502 kts 102°
2026-04-21 05:42 46.46909 -110.92607 34876 ft 502 kts 102°
2026-04-21 05:43 46.45532 -110.82745 34866 ft 501 kts 102°
2026-04-21 05:43 46.44140 -110.72839 34853 ft 502 kts 102°
2026-04-21 05:44 46.42738 -110.62930 34869 ft 501 kts 102°
2026-04-21 05:44 46.41330 -110.53036 34857 ft 501 kts 102°
2026-04-21 05:45 46.39911 -110.43133 34866 ft 503 kts 102°
2026-04-21 05:45 46.38480 -110.33215 34856 ft 504 kts 102°
2026-04-21 05:46 46.37045 -110.23325 34868 ft 505 kts 102°
2026-04-21 05:46 46.35592 -110.13379 34868 ft 506 kts 102°
2026-04-21 05:47 46.34124 -110.03399 34873 ft 507 kts 102°
2026-04-21 05:47 46.32648 -109.93426 34868 ft 508 kts 102°
2026-04-21 05:48 46.31159 -109.83429 34876 ft 508 kts 102°
2026-04-21 05:48 46.29662 -109.73447 34872 ft 508 kts 102°
2026-04-21 05:49 46.28159 -109.63482 34860 ft 507 kts 102°
2026-04-21 05:49 46.26650 -109.53542 34866 ft 506 kts 102°
2026-04-21 05:50 46.25136 -109.43631 34861 ft 505 kts 102°
2026-04-21 05:50 46.23623 -109.33790 34863 ft 504 kts 102°
2026-04-21 05:51 46.22096 -109.23915 34858 ft 503 kts 102°
2026-04-21 05:51 46.20559 -109.14038 34854 ft 503 kts 102°
2026-04-21 05:52 46.19018 -109.04192 34846 ft 503 kts 102°
2026-04-21 05:52 46.17468 -108.94350 34864 ft 503 kts 102°
2026-04-21 05:53 46.15910 -108.84519 34862 ft 503 kts 102°
2026-04-21 05:53 46.14350 -108.74729 34849 ft 503 kts 102°
2026-04-21 05:54 46.12774 -108.64898 34865 ft 503 kts 102°
2026-04-21 05:54 46.11187 -108.55057 34868 ft 504 kts 102°
2026-04-21 05:55 46.09588 -108.45199 34866 ft 505 kts 102°
2026-04-21 05:55 46.08007 -108.35513 34874 ft 505 kts 102°
2026-04-21 05:56 46.06390 -108.25665 34852 ft 506 kts 102°
2026-04-21 05:56 46.04763 -108.15810 34858 ft 506 kts 102°
2026-04-21 05:57 46.03138 -108.06020 34858 ft 506 kts 102°
2026-04-21 05:57 46.01493 -107.96167 34859 ft 506 kts 102°
2026-04-21 05:58 45.99839 -107.86319 34861 ft 506 kts 102°
2026-04-21 05:58 45.98176 -107.76476 34855 ft 506 kts 102°
2026-04-21 05:59 45.96508 -107.66654 34861 ft 505 kts 102°
2026-04-21 06:00 45.94003 -107.52019 34871 ft 504 kts 102°
2026-04-21 06:00 45.92323 -107.42269 34869 ft 505 kts 102°
2026-04-21 06:01 45.90630 -107.32485 34874 ft 505 kts 102°
2026-04-21 06:01 45.88927 -107.22701 34876 ft 505 kts 102°
2026-04-21 06:02 45.87216 -107.12928 34875 ft 505 kts 102°
2026-04-21 06:02 45.85495 -107.03159 34888 ft 505 kts 102°
2026-04-21 06:03 45.83778 -106.93453 34885 ft 505 kts 102°
2026-04-21 06:03 45.82050 -106.83696 34887 ft 505 kts 102°
2026-04-21 06:04 45.80450 -106.73891 34895 ft 504 kts 100°
2026-04-21 06:04 45.78908 -106.64090 34896 ft 505 kts 100°
2026-04-21 06:05 45.77343 -106.54269 34892 ft 505 kts 101°
2026-04-21 06:05 45.75754 -106.44466 34884 ft 505 kts 101°
2026-04-21 06:06 45.74151 -106.34672 34891 ft 505 kts 101°
2026-04-21 06:06 45.72542 -106.24903 34903 ft 504 kts 101°
2026-04-21 06:07 45.70924 -106.15131 34891 ft 504 kts 101°
2026-04-21 06:07 45.69313 -106.05452 34896 ft 503 kts 101°
2026-04-21 06:08 45.67682 -105.95709 34897 ft 502 kts 101°
2026-04-21 06:08 45.66048 -105.85999 34895 ft 502 kts 101°
2026-04-21 06:09 45.64407 -105.76306 34900 ft 501 kts 101°
2026-04-21 06:09 45.62762 -105.66641 34899 ft 501 kts 101°
2026-04-21 06:10 45.61112 -105.57004 34895 ft 501 kts 101°
2026-04-21 06:10 45.59453 -105.47362 34892 ft 500 kts 101°
2026-04-21 06:11 45.57784 -105.37718 34899 ft 500 kts 101°
2026-04-21 06:11 45.56106 -105.28071 34903 ft 500 kts 101°
2026-04-21 06:12 45.54423 -105.18449 34903 ft 500 kts 101°
2026-04-21 06:12 45.52728 -105.08816 34921 ft 501 kts 101°
2026-04-21 06:13 45.51314 -105.00811 34914 ft 501 kts 101°
2026-04-21 06:13 45.49604 -104.91185 34944 ft 501 kts 101°
2026-04-21 06:14 45.47886 -104.81565 34930 ft 501 kts 101°
2026-04-21 06:14 45.46156 -104.71928 34923 ft 501 kts 101°
2026-04-21 06:15 45.44422 -104.62319 34922 ft 501 kts 101°
2026-04-21 06:15 45.42680 -104.52719 34918 ft 500 kts 101°
2026-04-21 06:16 45.40932 -104.43132 34930 ft 500 kts 102°
2026-04-21 06:16 45.39176 -104.33554 34917 ft 500 kts 102°
2026-04-21 06:17 45.37426 -104.24054 34912 ft 499 kts 102°
2026-04-21 06:17 45.35660 -104.14521 34916 ft 498 kts 102°
2026-04-21 06:18 45.33886 -104.04993 34944 ft 498 kts 102°
2026-04-21 06:18 45.32106 -103.95479 34923 ft 498 kts 102°
2026-04-21 06:19 45.30318 -103.85969 34917 ft 498 kts 102°
2026-04-21 06:19 45.28526 -103.76488 34916 ft 497 kts 102°
2026-04-21 06:20 45.26725 -103.67006 34920 ft 496 kts 102°
2026-04-21 06:20 45.24933 -103.57617 34935 ft 496 kts 103°
2026-04-21 06:21 45.23121 -103.48171 34918 ft 496 kts 103°
2026-04-21 06:21 45.21301 -103.38728 34918 ft 496 kts 103°
2026-04-21 06:22 45.19473 -103.29293 34921 ft 496 kts 103°
2026-04-21 06:22 45.17638 -103.19869 34916 ft 495 kts 103°
2026-04-21 06:23 45.15799 -103.10467 34936 ft 496 kts 103°
2026-04-21 06:23 45.13949 -103.01055 34935 ft 495 kts 103°
2026-04-21 06:24 45.12093 -102.91659 34934 ft 495 kts 103°
2026-04-21 06:24 45.10228 -102.82261 34934 ft 495 kts 103°
2026-04-21 06:25 45.08369 -102.72938 34956 ft 496 kts 103°
2026-04-21 06:25 45.06477 -102.63494 34936 ft 496 kts 103°
2026-04-21 06:26 45.04590 -102.54123 34949 ft 496 kts 103°
2026-04-21 06:26 45.02695 -102.44752 34956 ft 495 kts 103°
2026-04-21 06:27 45.00806 -102.35456 34940 ft 495 kts 103°
2026-04-21 06:27 44.98895 -102.26098 34949 ft 495 kts 103°
2026-04-21 06:28 44.96981 -102.16766 34946 ft 495 kts 103°
2026-04-21 06:28 44.95058 -102.07434 34946 ft 494 kts 103°
2026-04-21 06:29 44.93134 -101.98143 34944 ft 493 kts 103°
2026-04-21 06:29 44.91203 -101.88858 34950 ft 492 kts 103°
2026-04-21 06:30 44.89270 -101.79606 34930 ft 492 kts 103°
2026-04-21 06:30 44.87330 -101.70358 34934 ft 491 kts 103°
2026-04-21 06:31 44.85384 -101.61131 34924 ft 490 kts 103°
2026-04-21 06:31 44.83449 -101.51993 34920 ft 490 kts 103°
2026-04-21 06:32 44.81495 -101.42803 34928 ft 489 kts 103°
2026-04-21 06:32 44.79536 -101.33636 34914 ft 488 kts 104°
2026-04-21 06:33 44.77572 -101.24482 34913 ft 488 kts 104°
2026-04-21 06:33 44.75601 -101.15339 34912 ft 488 kts 104°
2026-04-21 06:34 44.73626 -101.06215 34901 ft 488 kts 104°
2026-04-21 06:34 44.71641 -100.97086 34902 ft 488 kts 104°
2026-04-21 06:35 44.69651 -100.87972 34897 ft 488 kts 104°
2026-04-21 06:35 44.67652 -100.78856 34877 ft 488 kts 104°
2026-04-21 06:36 44.65646 -100.69749 34894 ft 488 kts 104°
2026-04-21 06:36 44.63633 -100.60649 34902 ft 488 kts 104°
2026-04-21 06:37 44.61624 -100.51604 34885 ft 488 kts 104°
2026-04-21 06:37 44.59595 -100.42508 34889 ft 488 kts 105°
2026-04-21 06:38 44.57561 -100.33431 34887 ft 488 kts 105°
2026-04-21 06:38 44.55522 -100.24368 34887 ft 487 kts 105°
2026-04-21 06:39 44.53475 -100.15303 34889 ft 487 kts 105°
2026-04-21 06:39 44.51420 -100.06239 34884 ft 487 kts 105°
2026-04-21 06:40 44.49377 -99.97190 34881 ft 486 kts 104°
2026-04-21 06:40 44.47503 -99.88169 34880 ft 486 kts 103°
2026-04-21 06:41 44.45664 -99.79076 34889 ft 486 kts 103°
2026-04-21 06:41 44.43801 -99.69980 34880 ft 487 kts 103°
2026-04-21 06:42 44.41912 -99.60882 34866 ft 487 kts 103°
2026-04-21 06:42 44.40014 -99.51813 34868 ft 487 kts 104°
2026-04-21 06:43 44.38100 -99.42711 34877 ft 488 kts 104°
2026-04-21 06:43 44.36190 -99.33661 34862 ft 489 kts 104°
2026-04-21 06:44 44.34264 -99.24577 34859 ft 489 kts 104°
2026-04-21 06:44 44.32323 -99.15458 34853 ft 489 kts 104°
2026-04-21 06:45 44.30382 -99.06382 34875 ft 489 kts 104°
2026-04-21 06:45 44.28424 -98.97266 34858 ft 489 kts 104°
2026-04-21 06:46 44.26464 -98.88181 34832 ft 489 kts 104°
2026-04-21 06:46 44.24501 -98.79121 34847 ft 488 kts 104°
2026-04-21 06:47 44.22546 -98.70137 34868 ft 487 kts 104°
2026-04-21 06:47 44.20576 -98.61120 34858 ft 486 kts 104°
2026-04-21 06:48 44.18606 -98.52143 34857 ft 484 kts 104°
2026-04-21 06:48 44.16633 -98.43189 34859 ft 483 kts 104°
2026-04-21 06:49 44.14659 -98.34266 34873 ft 482 kts 105°
2026-04-21 06:49 44.12678 -98.25352 34862 ft 481 kts 105°
2026-04-21 06:50 44.10697 -98.16473 34856 ft 480 kts 105°
2026-04-21 06:50 44.08715 -98.07631 34866 ft 479 kts 105°
2026-04-21 06:51 44.06728 -97.98795 34871 ft 478 kts 105°
2026-04-21 06:51 44.04747 -97.90026 34878 ft 478 kts 106°
2026-04-21 06:52 44.02733 -97.81146 34876 ft 479 kts 106°
2026-04-21 06:52 44.00734 -97.72372 34877 ft 480 kts 106°
2026-04-21 06:53 43.98715 -97.63541 34876 ft 480 kts 106°
2026-04-21 06:53 43.96685 -97.54698 34868 ft 481 kts 106°
2026-04-21 06:54 43.94643 -97.45843 34875 ft 482 kts 107°
2026-04-21 06:54 43.92592 -97.36978 34872 ft 482 kts 107°
2026-04-21 06:55 43.90531 -97.28113 34872 ft 483 kts 107°
2026-04-21 06:55 43.88464 -97.19251 34873 ft 483 kts 107°
2026-04-21 06:56 43.86386 -97.10384 34872 ft 483 kts 107°
2026-04-21 06:56 43.84305 -97.01535 34871 ft 483 kts 107°
2026-04-21 06:57 43.82215 -96.92683 34878 ft 483 kts 107°
2026-04-21 06:57 43.80124 -96.83863 34886 ft 482 kts 108°
2026-04-21 06:58 43.78041 -96.75111 34877 ft 481 kts 108°
2026-04-21 06:58 43.75942 -96.66328 34877 ft 480 kts 108°
2026-04-21 06:59 43.73841 -96.57568 34875 ft 480 kts 108°
2026-04-21 06:59 43.71735 -96.48823 34883 ft 479 kts 108°
2026-04-21 07:00 43.69626 -96.40094 34887 ft 479 kts 108°
2026-04-21 07:00 43.67509 -96.31371 34889 ft 479 kts 108°
2026-04-21 07:01 43.65382 -96.22641 34877 ft 479 kts 108°
2026-04-21 07:01 43.62545 -96.11044 34890 ft 479 kts 108°
2026-04-21 07:02 43.60402 -96.02325 34889 ft 480 kts 108°
2026-04-21 07:02 43.58249 -95.93596 34874 ft 481 kts 108°
2026-04-21 07:03 43.56082 -95.84845 34871 ft 482 kts 109°
2026-04-21 07:03 43.53905 -95.76090 34875 ft 483 kts 109°
2026-04-21 07:04 43.51720 -95.67329 34880 ft 483 kts 109°
2026-04-21 07:04 43.49548 -95.58655 34875 ft 484 kts 109°
2026-04-21 07:05 43.47349 -95.49908 34874 ft 484 kts 109°
2026-04-21 07:05 43.45143 -95.41158 34886 ft 484 kts 109°
2026-04-21 07:06 43.42968 -95.32402 34904 ft 484 kts 105°
2026-04-21 07:06 43.41803 -95.23303 34900 ft 483 kts 97°
2026-04-21 07:07 43.40906 -95.14126 34896 ft 484 kts 97°
2026-04-21 07:07 43.39977 -95.04958 34891 ft 484 kts 97°
2026-04-21 07:08 43.39001 -94.95794 34889 ft 485 kts 98°
2026-04-21 07:08 43.38001 -94.86628 34889 ft 485 kts 98°
2026-04-21 07:09 43.36992 -94.77462 34891 ft 486 kts 98°
2026-04-21 07:09 43.35975 -94.68271 34901 ft 486 kts 98°
2026-04-21 07:10 43.34951 -94.59087 34905 ft 487 kts 98°
2026-04-21 07:10 43.33919 -94.49889 34899 ft 488 kts 98°
2026-04-21 07:11 43.32884 -94.40733 34921 ft 488 kts 98°
2026-04-21 07:11 43.31832 -94.31500 34923 ft 490 kts 98°
2026-04-21 07:12 43.30771 -94.22260 34920 ft 491 kts 98°
2026-04-21 07:12 43.29700 -94.12994 34929 ft 492 kts 98°
2026-04-21 07:13 43.28616 -94.03683 34922 ft 494 kts 98°
2026-04-21 07:13 43.27523 -93.94369 34919 ft 494 kts 98°
2026-04-21 07:14 43.26421 -93.85045 34924 ft 495 kts 98°
2026-04-21 07:14 43.25319 -93.75788 34922 ft 495 kts 98°
2026-04-21 07:15 43.24201 -93.66468 34936 ft 495 kts 98°
2026-04-21 07:15 43.23076 -93.57145 34937 ft 495 kts 98°
2026-04-21 07:16 43.21945 -93.47842 34934 ft 495 kts 98°
2026-04-21 07:16 43.20804 -93.38529 34935 ft 495 kts 98°
2026-04-21 07:17 43.19658 -93.29229 34933 ft 495 kts 99°
2026-04-21 07:17 43.18503 -93.19935 34937 ft 494 kts 99°
2026-04-21 07:18 43.17344 -93.10661 34934 ft 494 kts 99°
2026-04-21 07:18 43.16176 -93.01381 34946 ft 494 kts 98°
2026-04-21 07:19 43.15001 -92.92105 34943 ft 495 kts 99°
2026-04-21 07:19 43.13816 -92.82823 34948 ft 495 kts 99°
2026-04-21 07:20 43.12630 -92.73583 34965 ft 496 kts 99°
2026-04-21 07:20 43.11425 -92.64269 34974 ft 497 kts 98°
2026-04-21 07:21 43.10212 -92.54949 34967 ft 498 kts 99°
2026-04-21 07:21 43.08990 -92.45622 34961 ft 499 kts 99°
2026-04-21 07:22 43.07757 -92.36270 34964 ft 499 kts 99°
2026-04-21 07:22 43.06516 -92.26923 34974 ft 500 kts 99°
2026-04-21 07:23 43.05267 -92.17581 34958 ft 500 kts 99°
2026-04-21 07:23 43.04016 -92.08279 34970 ft 500 kts 99°
2026-04-21 07:24 43.02751 -91.98931 34963 ft 500 kts 99°
2026-04-21 07:24 43.01481 -91.89607 34992 ft 500 kts 99°
2026-04-21 07:25 43.00201 -91.80272 34957 ft 500 kts 99°
2026-04-21 07:25 42.98913 -91.70933 34983 ft 499 kts 99°
2026-04-21 07:26 42.97621 -91.61618 34995 ft 499 kts 99°
2026-04-21 07:26 42.96375 -91.52291 35016 ft 499 kts 95°
2026-04-21 07:27 42.95577 -91.42936 35003 ft 498 kts 93°
2026-04-21 07:27 42.94876 -91.33529 35012 ft 498 kts 93°
2026-04-21 07:28 42.94134 -91.24115 35004 ft 499 kts 94°
2026-04-21 07:28 42.93351 -91.14695 34999 ft 499 kts 94°
2026-04-21 07:29 42.92555 -91.05297 34999 ft 499 kts 94°
2026-04-21 07:29 42.91753 -90.95894 35010 ft 499 kts 94°
2026-04-21 07:30 42.90945 -90.86492 35031 ft 498 kts 94°
2026-04-21 07:30 42.90131 -90.77111 35040 ft 498 kts 94°
2026-04-21 07:31 42.89310 -90.67734 35047 ft 498 kts 94°
2026-04-21 07:31 42.88486 -90.58410 35045 ft 498 kts 94°
2026-04-21 07:32 42.87480 -90.49070 35049 ft 499 kts 98°
2026-04-21 07:32 42.86176 -90.39797 35055 ft 499 kts 98°
2026-04-21 07:33 42.84855 -90.30507 35064 ft 499 kts 98°
2026-04-21 07:33 42.83571 -90.21223 35053 ft 499 kts 98°
2026-04-21 07:34 42.82294 -90.11932 35059 ft 498 kts 98°
2026-04-21 07:34 42.81007 -90.02648 35054 ft 498 kts 98°
2026-04-21 07:35 42.79720 -89.93434 35068 ft 498 kts 98°
2026-04-21 07:35 42.78308 -89.84194 35059 ft 499 kts 99°
2026-04-21 07:36 42.76815 -89.74966 35056 ft 499 kts 100°
2026-04-21 07:36 42.75319 -89.65728 35050 ft 499 kts 99°
2026-04-21 07:37 42.73833 -89.56492 35050 ft 499 kts 99°
2026-04-21 07:37 42.72349 -89.47278 35052 ft 499 kts 99°
2026-04-21 07:38 42.70855 -89.38042 35064 ft 500 kts 100°
2026-04-21 07:38 42.69353 -89.28816 35074 ft 500 kts 100°
2026-04-21 07:39 42.67843 -89.19599 35106 ft 500 kts 99°
2026-04-21 07:39 42.66323 -89.10363 35115 ft 500 kts 100°
2026-04-21 07:40 42.64807 -89.01207 35092 ft 500 kts 100°
2026-04-21 07:40 42.63264 -88.91935 35085 ft 500 kts 100°
2026-04-21 07:41 42.61734 -88.82791 35097 ft 500 kts 100°
2026-04-21 07:41 42.60185 -88.73577 35089 ft 500 kts 100°
2026-04-21 07:42 42.58629 -88.64378 35120 ft 500 kts 100°
2026-04-21 07:42 42.57067 -88.55187 35124 ft 500 kts 100°
2026-04-21 07:43 42.55496 -88.45987 35140 ft 500 kts 100°
2026-04-21 07:43 42.53917 -88.36793 35119 ft 500 kts 100°
2026-04-21 07:44 42.52331 -88.27604 35122 ft 500 kts 100°
2026-04-21 07:44 42.50738 -88.18420 35125 ft 501 kts 100°
2026-04-21 07:45 42.49147 -88.09297 35131 ft 501 kts 100°
2026-04-21 07:45 42.47538 -88.00113 35130 ft 501 kts 100°
2026-04-21 07:46 42.45918 -87.90918 35124 ft 502 kts 100°
2026-04-21 07:46 42.44290 -87.81726 35119 ft 502 kts 100°
2026-04-21 07:47 42.42654 -87.72530 35123 ft 502 kts 100°
2026-04-21 07:47 42.41011 -87.63340 35131 ft 503 kts 100°
2026-04-21 07:48 42.39360 -87.54153 35133 ft 503 kts 100°
2026-04-21 07:48 42.37702 -87.44974 35130 ft 502 kts 100°
2026-04-21 07:49 42.36319 -87.37350 35148 ft 502 kts 100°
2026-04-21 07:49 42.34650 -87.28193 35160 ft 501 kts 100°
2026-04-21 07:50 42.32974 -87.19041 35162 ft 501 kts 100°
2026-04-21 07:50 42.31293 -87.09907 35167 ft 501 kts 100°
2026-04-21 07:51 42.29605 -87.00779 35166 ft 501 kts 101°
2026-04-21 07:51 42.27909 -86.91653 35189 ft 500 kts 101°
2026-04-21 07:52 42.26217 -86.82590 35176 ft 500 kts 101°
2026-04-21 07:52 42.24507 -86.73474 35180 ft 500 kts 101°
2026-04-21 07:53 42.22793 -86.64381 35182 ft 500 kts 101°
2026-04-21 07:53 42.21071 -86.55289 35210 ft 500 kts 101°
2026-04-21 07:54 42.19342 -86.46200 35188 ft 500 kts 101°
2026-04-21 07:54 42.17607 -86.37121 35192 ft 500 kts 101°
2026-04-21 07:55 42.15865 -86.28051 35195 ft 500 kts 101°
2026-04-21 07:55 42.14114 -86.18980 35202 ft 500 kts 101°
2026-04-21 07:56 42.12372 -86.09990 35214 ft 500 kts 101°
2026-04-21 07:56 42.10610 -86.00942 35217 ft 499 kts 101°
2026-04-21 07:57 42.08839 -85.91889 35211 ft 499 kts 101°
2026-04-21 07:57 42.07064 -85.82856 35210 ft 499 kts 101°
2026-04-21 07:58 42.05279 -85.73816 35206 ft 499 kts 101°
2026-04-21 07:58 42.03491 -85.64796 35202 ft 499 kts 101°
2026-04-21 07:59 42.01693 -85.55770 35202 ft 499 kts 101°
2026-04-21 07:59 41.99888 -85.46746 35206 ft 499 kts 101°
2026-04-21 08:00 41.98075 -85.37726 35227 ft 500 kts 101°
2026-04-21 08:00 41.96256 -85.28704 35225 ft 500 kts 101°
2026-04-21 08:01 41.94963 -85.19653 35204 ft 492 kts 86°
2026-04-21 08:02 41.94991 -85.05932 35210 ft 489 kts 84°
2026-04-21 08:02 41.95015 -84.96789 35217 ft 490 kts 84°
2026-04-21 08:03 41.94989 -84.87633 35218 ft 490 kts 85°
2026-04-21 08:03 41.94939 -84.78482 35231 ft 490 kts 85°
2026-04-21 08:04 41.94881 -84.69320 35220 ft 490 kts 85°
2026-04-21 08:04 41.94818 -84.60214 35227 ft 489 kts 85°
2026-04-21 08:05 41.94749 -84.51071 35214 ft 489 kts 85°
2026-04-21 08:05 41.94673 -84.41942 35227 ft 488 kts 85°
2026-04-21 08:06 41.94590 -84.32825 35275 ft 487 kts 85°
2026-04-21 08:06 41.94500 -84.23729 35269 ft 487 kts 85°
2026-04-21 08:07 41.94403 -84.14638 35258 ft 487 kts 86°
2026-04-21 08:07 41.94299 -84.05541 35257 ft 486 kts 86°
2026-04-21 08:08 41.94187 -83.96473 35257 ft 486 kts 86°
2026-04-21 08:08 41.94070 -83.87460 35281 ft 486 kts 86°
2026-04-21 08:09 41.93945 -83.78387 35283 ft 486 kts 86°
2026-04-21 08:09 41.93812 -83.69305 35279 ft 486 kts 86°
2026-04-21 08:10 41.93672 -83.60221 35279 ft 487 kts 86°
2026-04-21 08:10 41.93526 -83.51125 35298 ft 487 kts 86°
2026-04-21 08:11 41.93433 -83.42021 35270 ft 487 kts 85°
2026-04-21 08:11 41.93414 -83.32921 35267 ft 487 kts 85°
2026-04-21 08:12 41.93389 -83.23819 35275 ft 488 kts 85°
2026-04-21 08:12 41.93344 -83.14765 35289 ft 488 kts 85°
2026-04-21 08:13 41.93285 -83.05595 35276 ft 488 kts 85°
2026-04-21 08:13 41.93218 -82.96530 35278 ft 488 kts 85°
2026-04-21 08:14 41.93144 -82.87351 35285 ft 488 kts 85°
2026-04-21 08:14 41.93065 -82.78315 35303 ft 487 kts 85°
2026-04-21 08:15 41.92978 -82.69216 35314 ft 487 kts 85°
2026-04-21 08:15 41.92884 -82.60115 35311 ft 487 kts 85°
2026-04-21 08:16 41.92782 -82.51032 35318 ft 486 kts 85°
2026-04-21 08:16 41.92674 -82.41955 35317 ft 486 kts 85°
2026-04-21 08:17 41.92559 -82.32878 35331 ft 486 kts 85°
2026-04-21 08:17 41.92436 -82.23792 35326 ft 487 kts 85°
2026-04-21 08:18 41.92307 -82.14709 35318 ft 487 kts 85°
2026-04-21 08:18 41.92170 -82.05616 35338 ft 487 kts 85°
2026-04-21 08:19 41.92025 -81.96506 35335 ft 488 kts 85°
2026-04-21 08:19 41.91875 -81.87389 35339 ft 488 kts 85°
2026-04-21 08:20 41.91494 -81.78254 35342 ft 493 kts 91°
2026-04-21 08:20 41.90657 -81.69107 35343 ft 494 kts 92°
2026-04-21 08:21 41.89770 -81.59956 35349 ft 494 kts 92°
2026-04-21 08:21 41.88924 -81.50861 35341 ft 494 kts 91°
2026-04-21 08:22 41.88092 -81.41704 35336 ft 494 kts 91°
2026-04-21 08:22 41.87256 -81.32540 35340 ft 494 kts 91°
2026-04-21 08:23 41.86412 -81.23388 35349 ft 494 kts 92°
2026-04-21 08:23 41.85558 -81.14234 35335 ft 494 kts 92°
2026-04-21 08:24 41.84697 -81.05090 35347 ft 493 kts 92°
2026-04-21 08:24 41.83832 -80.95974 35351 ft 493 kts 92°
2026-04-21 08:25 41.82961 -80.86868 35359 ft 492 kts 92°
2026-04-21 08:25 41.82088 -80.77823 35342 ft 492 kts 92°
2026-04-21 08:26 41.81202 -80.68716 35342 ft 492 kts 92°
2026-04-21 08:26 41.80310 -80.59616 35353 ft 491 kts 92°
2026-04-21 08:27 41.79410 -80.50548 35366 ft 491 kts 92°
2026-04-21 08:27 41.78500 -80.41480 35344 ft 491 kts 92°
2026-04-21 08:28 41.77583 -80.32409 35342 ft 490 kts 92°
2026-04-21 08:28 41.76663 -80.23371 35336 ft 490 kts 92°
2026-04-21 08:29 41.75735 -80.14331 35359 ft 490 kts 92°
2026-04-21 08:29 41.74805 -80.05332 35350 ft 490 kts 92°
2026-04-21 08:30 41.73862 -79.96283 35351 ft 490 kts 92°
2026-04-21 08:30 41.72913 -79.87241 35366 ft 490 kts 92°
2026-04-21 08:31 41.71956 -79.78200 35395 ft 490 kts 92°
2026-04-21 08:31 41.70992 -79.69157 35381 ft 491 kts 92°
2026-04-21 08:32 41.70021 -79.60122 35376 ft 491 kts 92°
2026-04-21 08:32 41.69042 -79.51083 35384 ft 491 kts 92°
2026-04-21 08:33 41.68056 -79.42041 35423 ft 491 kts 92°
2026-04-21 08:33 41.67062 -79.32997 35389 ft 492 kts 92°
2026-04-21 08:34 41.66063 -79.23961 35393 ft 491 kts 92°
2026-04-21 08:34 41.65058 -79.14949 35386 ft 490 kts 92°
2026-04-21 08:35 41.64051 -79.05950 35389 ft 489 kts 92°
2026-04-21 08:35 41.63048 -78.97031 35388 ft 488 kts 92°
2026-04-21 08:36 41.62031 -78.88051 35381 ft 488 kts 92°
2026-04-21 08:36 41.61009 -78.79098 35375 ft 487 kts 93°
2026-04-21 08:37 41.60147 -78.71596 35342 ft 487 kts 93°
2026-04-21 08:37 41.59119 -78.62708 35341 ft 487 kts 93°
2026-04-21 08:38 41.58078 -78.53771 35343 ft 487 kts 93°
2026-04-21 08:38 41.57029 -78.44818 35350 ft 488 kts 93°
2026-04-21 08:39 41.55973 -78.35876 35373 ft 487 kts 93°
2026-04-21 08:39 41.54910 -78.26940 35392 ft 487 kts 93°
2026-04-21 08:40 41.53840 -78.17996 35387 ft 488 kts 93°
2026-04-21 08:40 41.52762 -78.09041 35384 ft 489 kts 93°
2026-04-21 08:41 41.51678 -78.00100 35402 ft 489 kts 93°
2026-04-21 08:41 41.50532 -77.91176 35401 ft 491 kts 95°
2026-04-21 08:42 41.49249 -77.82236 35397 ft 491 kts 95°
2026-04-21 08:42 41.47951 -77.73302 35396 ft 491 kts 95°
2026-04-21 08:43 41.46663 -77.64364 35393 ft 490 kts 95°
2026-04-21 08:43 41.45375 -77.55438 35411 ft 491 kts 95°
2026-04-21 08:44 41.44089 -77.46503 35410 ft 491 kts 95°
2026-04-21 08:44 41.42789 -77.37567 35399 ft 491 kts 95°
2026-04-21 08:45 41.41483 -77.28645 35390 ft 490 kts 95°
2026-04-21 08:45 41.40181 -77.19801 35414 ft 489 kts 95°
2026-04-21 08:46 41.38864 -77.10899 35393 ft 490 kts 95°
2026-04-21 08:46 41.37542 -77.02011 35399 ft 489 kts 95°
2026-04-21 08:47 41.36210 -76.93113 35390 ft 489 kts 95°
2026-04-21 08:47 41.34883 -76.84282 35434 ft 489 kts 95°
2026-04-21 08:48 41.33434 -76.75391 35102 ft 498 kts 101°
2026-04-21 08:48 41.32349 -76.71028 34604 ft 497 kts 104°
2026-04-21 08:48 41.31152 -76.66717 34076 ft 494 kts 104°
2026-04-21 08:48 41.29939 -76.62462 33522 ft 490 kts 104°
2026-04-21 08:49 41.28747 -76.58236 33006 ft 485 kts 104°
2026-04-21 08:49 41.27591 -76.54059 32511 ft 480 kts 103°
2026-04-21 08:49 41.26461 -76.49902 32082 ft 475 kts 102°
2026-04-21 08:49 41.25352 -76.45783 31592 ft 471 kts 102°
2026-04-21 08:50 41.24255 -76.41695 31112 ft 468 kts 102°
2026-04-21 08:50 41.23164 -76.37637 30637 ft 465 kts 102°
2026-04-21 08:50 41.22079 -76.33612 30109 ft 461 kts 102°
2026-04-21 08:50 41.21001 -76.29623 29575 ft 457 kts 102°
2026-04-21 08:51 41.19929 -76.25668 29102 ft 452 kts 102°
2026-04-21 08:51 41.18870 -76.21770 28626 ft 448 kts 102°
2026-04-21 08:51 41.17828 -76.17946 28222 ft 442 kts 102°
2026-04-21 08:51 41.16785 -76.14122 27804 ft 438 kts 102°
2026-04-21 08:52 41.15753 -76.10335 27324 ft 435 kts 102°
2026-04-21 08:52 41.14724 -76.06570 26858 ft 432 kts 102°
2026-04-21 08:52 41.13701 -76.02836 26413 ft 429 kts 103°
2026-04-21 08:52 41.12687 -75.99150 25948 ft 421 kts 103°
2026-04-21 08:53 41.11692 -75.95549 25521 ft 412 kts 103°
2026-04-21 08:53 41.10717 -75.92016 25111 ft 404 kts 103°
2026-04-21 08:53 41.09757 -75.88531 24706 ft 403 kts 103°
2026-04-21 08:53 41.08789 -75.84999 24287 ft 411 kts 103°
2026-04-21 08:54 41.07805 -75.81414 23809 ft 415 kts 104°
2026-04-21 08:54 41.06814 -75.77829 23324 ft 413 kts 104°
2026-04-21 08:54 41.05824 -75.74261 22855 ft 411 kts 104°
2026-04-21 08:54 41.04849 -75.70755 22375 ft 408 kts 104°
2026-04-21 08:55 41.03871 -75.67238 21931 ft 405 kts 105°
2026-04-21 08:55 41.02901 -75.63748 21486 ft 402 kts 105°
2026-04-21 08:55 41.01936 -75.60281 21047 ft 399 kts 105°
2026-04-21 08:55 41.00983 -75.56869 20633 ft 394 kts 105°
2026-04-21 08:56 41.00038 -75.53491 20341 ft 388 kts 105°
2026-04-21 08:56 40.99101 -75.50141 19920 ft 386 kts 105°
2026-04-21 08:56 40.98172 -75.46823 19506 ft 384 kts 106°
2026-04-21 08:56 40.97242 -75.43502 19107 ft 382 kts 106°
2026-04-21 08:57 40.96326 -75.40240 18670 ft 375 kts 106°
2026-04-21 08:57 40.95422 -75.37025 17966 ft 374 kts 106°
2026-04-21 08:57 40.94522 -75.33823 17440 ft 368 kts 106°
2026-04-21 08:57 40.93635 -75.30674 16960 ft 361 kts 106°
2026-04-21 08:58 40.92775 -75.27626 16578 ft 355 kts 106°
2026-04-21 08:58 40.91917 -75.24583 16193 ft 352 kts 106°
2026-04-21 08:58 40.91059 -75.21539 15798 ft 357 kts 106°
2026-04-21 08:58 40.90189 -75.18452 15421 ft 357 kts 106°
2026-04-21 08:59 40.89328 -75.15417 15020 ft 349 kts 107°
2026-04-21 08:59 40.88479 -75.12425 14656 ft 349 kts 107°
2026-04-21 08:59 40.87627 -75.09417 14310 ft 349 kts 106°
2026-04-21 08:59 40.86789 -75.06451 13956 ft 347 kts 106°
2026-04-21 09:00 40.85950 -75.03476 13550 ft 345 kts 106°
2026-04-21 09:00 40.85113 -75.00508 13148 ft 344 kts 106°
2026-04-21 09:00 40.84277 -74.97553 12750 ft 342 kts 107°
2026-04-21 09:00 40.83447 -74.94616 12335 ft 340 kts 107°
2026-04-21 09:01 40.82609 -74.91703 11962 ft 339 kts 110°
2026-04-21 09:01 40.81358 -74.89069 11624 ft 339 kts 129°
2026-04-21 09:01 40.79815 -74.86726 11263 ft 337 kts 130°
2026-04-21 09:01 40.78254 -74.84421 10888 ft 337 kts 131°
2026-04-21 09:02 40.76691 -74.82119 10485 ft 336 kts 131°
2026-04-21 09:02 40.75159 -74.79851 10250 ft 329 kts 131°
2026-04-21 09:02 40.73657 -74.77619 10069 ft 321 kts 130°
2026-04-21 09:03 40.70808 -74.73365 9590 ft 310 kts 130°
2026-04-21 09:03 40.69390 -74.71242 9240 ft 306 kts 130°
2026-04-21 09:03 40.68018 -74.69191 9125 ft 288 kts 130°
2026-04-21 09:03 40.66741 -74.67282 8981 ft 268 kts 130°
2026-04-21 09:04 40.65552 -74.65504 8853 ft 249 kts 130°
2026-04-21 09:04 40.64444 -74.63849 8695 ft 233 kts 130°
2026-04-21 09:04 40.63392 -74.62275 8365 ft 227 kts 130°
2026-04-21 09:04 40.62359 -74.60731 7973 ft 223 kts 130°
2026-04-21 09:05 40.61338 -74.59205 7576 ft 220 kts 130°
2026-04-21 09:05 40.60331 -74.57701 7193 ft 217 kts 130°
2026-04-21 09:05 40.59342 -74.56226 6899 ft 213 kts 130°
2026-04-21 09:05 40.58370 -74.54776 6657 ft 210 kts 130°
2026-04-21 09:06 40.57404 -74.53336 6395 ft 210 kts 130°
2026-04-21 09:06 40.56435 -74.51892 6176 ft 211 kts 130°
2026-04-21 09:06 40.55458 -74.50436 5961 ft 211 kts 130°
2026-04-21 09:06 40.54509 -74.49024 5726 ft 201 kts 130°
2026-04-21 09:07 40.53599 -74.47669 5486 ft 195 kts 130°
2026-04-21 09:07 40.52709 -74.46347 5286 ft 192 kts 130°
2026-04-21 09:07 40.51824 -74.45032 5094 ft 192 kts 130°
2026-04-21 09:07 40.50952 -74.43738 4880 ft 191 kts 130°
2026-04-21 09:08 40.50061 -74.42415 4656 ft 191 kts 129°
2026-04-21 09:08 40.49423 -74.40919 4455 ft 185 kts 101°
2026-04-21 09:08 40.49161 -74.39309 4266 ft 182 kts 92°
2026-04-21 09:08 40.49242 -74.37676 4054 ft 177 kts 72°
2026-04-21 09:09 40.49575 -74.36126 3855 ft 176 kts 69°
2026-04-21 09:09 40.49935 -74.34590 3658 ft 176 kts 69°
2026-04-21 09:09 40.50285 -74.33097 3568 ft 166 kts 69°
2026-04-21 09:09 40.50623 -74.31656 3475 ft 164 kts 69°
2026-04-21 09:10 40.50959 -74.30227 3402 ft 163 kts 69°
2026-04-21 09:10 40.51309 -74.28810 3327 ft 162 kts 62°
2026-04-21 09:10 40.51983 -74.27663 3268 ft 158 kts 39°
2026-04-21 09:10 40.52910 -74.26940 3199 ft 151 kts 24°
2026-04-21 09:11 40.53823 -74.26342 3003 ft 139 kts 25°
2026-04-21 09:11 40.54692 -74.25775 2857 ft 138 kts 24°
2026-04-21 09:11 40.55544 -74.25226 2832 ft 136 kts 24°
2026-04-21 09:11 40.56399 -74.24679 2656 ft 133 kts 18°
2026-04-21 09:12 40.57210 -74.24188 2479 ft 124 kts 24°
2026-04-21 09:12 40.57970 -74.23685 2329 ft 123 kts 24°
2026-04-21 09:12 40.58740 -74.23187 2152 ft 123 kts 24°
2026-04-21 09:12 40.59498 -74.22700 1974 ft 119 kts 24°
2026-04-21 09:13 40.60237 -74.22228 1824 ft 120 kts 23°
2026-04-21 09:13 40.60992 -74.21747 1652 ft 120 kts 23°
2026-04-21 09:13 40.61744 -74.21267 1483 ft 120 kts 23°
2026-04-21 09:13 40.62497 -74.20793 1316 ft 120 kts 21°
2026-04-21 09:14 40.63250 -74.20310 1148 ft 121 kts 23°
2026-04-21 09:14 40.64008 -74.19823 957 ft 122 kts 22°
2026-04-21 09:14 40.64791 -74.19346 785 ft 127 kts 18°
2026-04-21 09:14 40.65569 -74.18826 672 ft 123 kts 26°
2026-04-21 09:15 40.66353 -74.18281 489 ft 127 kts 17°
2026-04-21 09:15 40.67182 -74.17831 330 ft 131 kts 21°
2026-04-21 09:15 40.68005 -74.17250 145 ft 134 kts 19°
2026-04-21 09:15 40.68823 -74.16741 27 ft 123 kts 22°
2026-04-21 09:16 40.69479 -74.16353 22 ft 80 kts 26°
2026-04-21 09:16 40.69768 -74.16189 16 ft 22 kts 350°
2026-04-21 09:16 40.69829 -74.16289 16 ft 14 kts 300°
2026-04-21 09:16 40.69847 -74.16334 16 ft 0 kts 297°
2026-04-21 09:18 40.69847 -74.16335 16 ft 1 kts 297°
2026-04-21 09:18 40.69862 -74.16376 15 ft 8 kts 295°
2026-04-21 09:18 40.69889 -74.16451 14 ft 10 kts 295°
2026-04-21 09:18 40.69903 -74.16540 15 ft 10 kts 275°
2026-04-21 09:19 40.69874 -74.16617 15 ft 11 kts 212°
2026-04-21 09:19 40.69811 -74.16681 14 ft 12 kts 236°
2026-04-21 09:19 40.69774 -74.16779 17 ft 12 kts 239°
2026-04-21 09:19 40.69698 -74.16852 18 ft 17 kts 205°
2026-04-21 09:20 40.69574 -74.16932 18 ft 19 kts 206°
2026-04-21 09:20 40.69526 -74.17061 19 ft 13 kts 261°
2026-04-21 09:20 40.69521 -74.17143 18 ft 1 kts 289°
2026-04-21 09:21 40.69531 -74.17158 20 ft 2 kts 317°
2026-04-21 09:21 40.69559 -74.17175 19 ft 8 kts 339°
2026-04-21 09:21 40.69579 -74.17186 20 ft 0 kts 347°